Location: Ariel
(45.9570°N, 122.5700°W)
Time: 15:22:23
(UTC-07:00)

Altair - Pass Details

Date: 29 July 2019
Orbit: 1501 x 1683 km, 47.2° (Epoch: 24 August)

Event Time Altitude Azimuth Distance (km) Brightness Sun altitude
Rises 18:17:17 0° 290° (WNW) 4,646 11.3 23.5°
Reaches altitude 10° 18:21:04 10° 277° (W) 3,674 11.6 22.8°
Maximum altitude 18:27:46 23° 230° (SW) 2,813 9.8 21.7°
Drops below altitude 10° 18:34:36 10° 182° (S) 3,744 9.6 20.5°
Sets 18:38:32 0° 169° (S) 4,756 9.9 19.8°
